Regional Weather Roundup
Issued by NWS

Home | Current Version | Previous Version | Text Only | Print | Product List | Glossary On
Versions: 1 2 3 4 5 6 7 8 9 10 11 12 13 14 15 16 17 18 19 20 21 22 23 24 25 26 27 28 29 30 31 32 33 34 35 36 37 38 39 40 41 42 43 44 45 46 47 48 49 50
203
ASUS43 KLSX 252107
RWRMO

WEATHER SUMMARY FOR MISSOURI
NATIONAL WEATHER SERVICE SPRINGFIELD MO
400 PM CDT SAT MAR 25 2017

NOTE: "FAIR" INDICATES FEW OR NO CLOUDS BELOW 12,000 FEET WITH NO
       SIGNIFICANT WEATHER AND/OR OBSTRUCTIONS TO VISIBILITY.
       CURRENT SKY AND/OR WEATHER CONDITIONS ARE NOT AVAILABLE FOR
       CHILLICOTHE AND FARMINGTON.

MOZ001>031-035>038-043-044-053-054-252200-
...NORTHERN AND WESTERN MISSOURI...

CITY           SKY/WX    TMP DP  RH WIND       PRES   REMARKS
KANSAS CTY INT LGT RAIN  51  49  92 N12       29.83S
KANSAS C DTWN  CLOUDY    56  51  84 N9        29.81S
LEE`S SUMMIT   CLOUDY    57  52  83 N12       29.80S
ST JOSEPH      CLOUDY    49  46  90 N13       29.86F
CHILLICOTHE      N/A     53  49  86 N10G17    29.84S
KIRKSVILLE     LGT RAIN  50  49  96 N14       29.81F FOG

$$
MOZ066>068-077>081-088>096-101>105-252200-
...SOUTHWEST MISSOURI...

CITY           SKY/WX    TMP DP  RH WIND       PRES   REMARKS
SPRINGFIELD    CLOUDY    52  48  86 W14       29.83R
JOPLIN         CLOUDY    49  45  86 W13       29.88R
BRANSON        CLOUDY    50  48  93 W8        29.87R FOG

$$
MOZ032>034-039>042-045>050-055>058-069>072-252200-
...CENTRAL MISSOURI...

CITY           SKY/WX    TMP DP  RH WIND       PRES   REMARKS
COLUMBIA       LGT RAIN  58  58 100 E6        29.77F FOG
JEFFERSON CITY CLOUDY    62  56  80 NE5       29.76F
ROLLA          CLOUDY    61  58  90 SE13      29.75F
SEDALIA        CLOUDY    62  54  74 NE3       29.79F
WHITEMAN AFB   DRIZZLE   63  58  83 E3        29.77S
WARRENSBURG    CLOUDY    57  52  82 N10       29.79S
OSAGE BEACH    LGT RAIN N/A N/A N/A VRB5      29.77S

$$
MOZ051-052-059>065-252200-
...EAST CENTRAL MISSOURI...

CITY           SKY/WX    TMP DP  RH WIND       PRES   REMARKS
ST LOUIS INTL  PTSUNNY   65  58  78 SE16      29.82F
SPIRIT OF STL  PTSUNNY   66  59  78 SE10      29.79F
ST CHARLES     PTSUNNY   65  61  87 SE13      29.81F

$$
MOZ072>076-082>087-097>100-106>115-252200-
...SOUTH CENTRAL AND SOUTHEAST MISSOURI...

CITY           SKY/WX    TMP DP  RH WIND       PRES   REMARKS
CAPE GIRARDEAU CLOUDY    64  59  83 S15       29.86F
FARMINGTON     CLOUDY    62  56  80 SE14      29.81F
POPLAR BLUFF   MOSUNNY   67  60  78 S17G25    29.81F
WEST PLAINS    CLOUDY    60  53  77 W12G18    29.82R

$$




USA.gov is the U.S. government's official web portal to all federal, state and local government web resources and services.